Location: Crescent
(42.8242°N, 73.7329°W)
Time: 01:22:03
(UTC+00:00)

Transit 4A - Pass Details

Date: 24 February 2026
Orbit: 864 x 977 km, 66.8° (Epoch: 10 March)

Event Time Altitude Azimuth Distance (km) Brightness Sun altitude
Rises 10:00:40 0° 286° (WNW) 3,505 - -18.7°
Exits shadow 10:05:31 10° 321° (NW) 2,635 9.9 -17.8°
Reaches altitude 10° 10:06:02 10° 326° (NW) 2,603 9.9 -17.7°
Maximum altitude 10:07:02 10° 336° (NNW) 2,583 10.0 -17.5°
Drops below altitude 10° 10:08:02 10° 345° (NNW) 2,618 10.1 -17.4°
Sets 10:13:33 0° 25° (NNE) 3,602 11.4 -16.3°
